Flag for Australia Weather past 2 weeks in Alice Springs, Northern Territory, Australia

Now
75 °F

Clear.


Feels Like: 76 °F
Forecast: 75 / 91 °F
Wind: 5 mph from Southeast

Location: Alice Springs Aerodrome

Current Time: Dec 19, 2014 at 1:38:15 AM

Latest Report: Dec 19, 2014 at 1:00 AM


Visibility: N/A

Pressure: 29.95 "Hg

Humidity: 78%

Dew point: 68 °F

Location of Alice SpringsLocation

Historic Weather in Alice Springs — Graph

°F

Alice Springs temperature yesterday

Maximum temperature yesterday: 90 °F (at 3:30 PM)
Minimum temperature yesterday: 68 °F (at 7:00 AM)
Average temperature yesterday: 80 °F

Past Weeks' High & Low Weather Summary

 TemperatureHumidityPressure
High109 °F (Dec 15, 4:00 PM)100% (Dec 18, 7:00 AM)30.01 "Hg (Dec 18, 7:00 AM)
Low64 °F (Dec 14, 5:30 AM)6% (Dec 14, 3:00 PM)29.56 "Hg (Dec 7, 4:30 PM)
Average88 °F36%29.81 "Hg
* Reported Dec 4 12:30 AM — Dec 19 12:30 AM, Alice Springs, Weather by CustomWeather, © 2014

Note: Actual official high and low records may vary slightly from our data, if they occured in-between our weather recording intervals... More about our weather records

Advertising

Alice Springs weather history for previous 24 hours

 ConditionsComfort  
Time TempWeatherWind HumidityBarometerVisibility
12:30 AM
Dec 19
75 °FClear.5 mph78%29.95 "HgN/A
12:00 AM77 °FClear.6 mph69%29.98 "HgN/A
11:30 PM
Dec 18
77 °FClear.8 mph69%29.98 "HgN/A
11:00 PM79 °FClear.10 mph65%29.95 "HgN/A
10:30 PM79 °FClear.10 mph61%29.95 "HgN/A
10:00 PM81 °FClear.10 mph58%29.95 "HgN/A
9:30 PM82 °FClear.9 mph55%29.95 "HgN/A
9:00 PM82 °FClear.8 mph55%29.92 "HgN/A
8:30 PM82 °FClear.8 mph55%29.92 "HgN/A
7:30 PM86 °FClear.9 mph43%29.92 "HgN/A
7:00 PM88 °FPassing clouds.10 mph40%29.89 "HgN/A
6:30 PM88 °FMostly cloudy.13 mph38%29.89 "HgN/A
6:00 PM90 °FOvercast.12 mph38%29.89 "HgN/A
5:30 PM88 °FMostly cloudy.13 mph40%29.86 "HgN/A
4:30 PM90 °FSunny.9 mph38%29.86 "Hg10 mi
4:00 PM90 °FPassing clouds.10 mph41%29.89 "HgN/A
3:30 PM90 °FPassing clouds.6 mph41%29.89 "HgN/A
2:30 PM88 °FSunny.8 mph46%29.92 "Hg10 mi
2:00 PM88 °FPassing clouds.6 mph40%29.92 "HgN/A
1:30 PM88 °FBroken clouds.5 mph46%29.92 "HgN/A
12:30 PM84 °FBroken clouds.7 mph55%29.95 "HgN/A
12:00 PM82 °FScattered clouds.9 mph58%29.95 "HgN/A
11:30 AM82 °FScattered clouds.9 mph55%29.95 "HgN/A
11:00 AM79 °FScattered clouds.8 mph61%29.98 "HgN/A
10:30 AM79 °FBroken clouds.9 mph61%29.95 "HgN/A
10:00 AM79 °FScattered clouds.13 mph65%29.95 "HgN/A
9:30 AM75 °FSunny.17 mph69%29.95 "HgN/A
8:30 AM72 °FBroken clouds.8 mph88%29.98 "HgN/A
7:30 AM68 °FBroken clouds.8 mph100%30.01 "HgN/A
7:00 AM68 °FLight rain. Mostly cloudy.8 mph100%29.98 "Hg5 mi
6:30 AM70 °FLight rain. Mostly cloudy.9 mph88%29.98 "Hg5 mi
5:30 AM70 °FSprinkles. Partly sunny.6 mph94%29.95 "HgN/A
4:30 AM72 °FPassing clouds.7 mph88%29.92 "HgN/A
4:00 AM70 °FSprinkles. Passing clouds.10 mph94%29.89 "HgN/A
3:30 AM70 °FSprinkles. Passing clouds.8 mph94%29.92 "HgN/A
3:00 AM70 °FLots of rain. Partly cloudy.15 mph83%29.89 "Hg2 mi
2:30 AM75 °FSprinkles. Mostly cloudy.15 mph65%29.83 "HgN/A
2:00 AM73 °FSprinkles. Passing clouds.8 mph74%29.80 "HgN/A
1:30 AM79 °FSprinkles. Mostly cloudy.6 mph51%29.80 "HgN/A
1:00 AM81 °FSprinkles. Mostly cloudy.7 mph51%29.77 "HgN/A
Weather by CustomWeather, © 2014

See weather overviewHow to use our weather pages